N1ADJ Weather Reports


time (UTC)temp
C
wind
direction
speed
KPH
gust
KPH
rain 1hr
cm
rain 24hr
cm
rain mn
cm
humidity
%
barometer
mb
20260507115518 9 270 4.8 9.7 0.00 1.17 0.41 89 1006.3
20260507115018 8 270 1.6 4.8 0.00 1.17 0.41 91 1006.1
20260507114525 8 293 1.6 8.0 0.00 1.17 0.41 90 1006.2
20260507114019 8 293 3.2 8.0 0.00 1.17 0.41 91 1006.1
20260507113518 8 315 3.2 8.0 0.00 1.17 0.41 92 1006.1
20260507113018 8 270 3.2 11.3 0.00 1.17 0.41 93 1006.4
20260507112518 8 270 1.6 8.0 0.00 1.17 0.41 93 1006.4
20260507112019 8 0.0 0.0 0.00 1.17 0.41 93 1006.3
20260507111517 8 0.0 0.0 0.00 1.17 0.41 93 1006.5
20260507111019 8 0.0 0.0 0.00 1.17 0.41 94 1006.6
20260507110518 8 0.0 0.0 0.00 1.17 0.41 94 1006.5
20260507110028 8 0.0 0.0 0.00 1.17 0.41 94 1006.1
20260507105518 8 0.0 0.0 0.00 1.17 0.41 94 1006.3
20260507105020 8 0.0 0.0 0.00 1.17 0.41 94 1006.7
20260507104519 8 0.0 0.0 0.00 1.17 0.41 94 1006.9
20260507104018 8 0.0 0.0 0.00 1.17 0.41 94 1006.4
20260507103518 8 270 1.6 4.8 0.00 1.17 0.41 94 1006.4
20260507103020 8 270 3.2 6.4 0.00 1.17 0.41 93 1006.7
20260507102518 8 293 1.6 4.8 0.00 1.17 0.41 93 1006.3
20260507102021 8 293 1.6 6.4 0.00 1.17 0.41 93 1006.2
20260507101517 8 270 3.2 4.8 0.00 1.17 0.41 93 1006.3
20260507101043 8 270 3.2 9.7 0.00 1.17 0.41 93 1006.5
20260507100519 8 270 4.8 9.7 0.00 1.17 0.41 93 1006.2
20260507100027 8 293 1.6 4.8 0.00 1.17 0.41 93 1006.4
20260507095523 8 315 1.6 4.8 0.00 1.17 0.41 93 1005.9
20260507095017 8 0.0 4.8 0.00 1.17 0.41 93 1005.9
20260507094539 8 0.0 4.8 0.00 1.17 0.41 93 1005.8
20260507094019 8 270 3.2 9.7 0.00 1.17 0.41 93 1006.3
20260507093519 8 315 3.2 8.0 0.00 1.17 0.41 92 1006.0
20260507093019 8 315 3.2 8.0 0.00 1.17 0.41 92 1005.3
20260507092520 8 315 3.2 8.0 0.00 1.17 0.41 92 1005.5
20260507092018 8 338 1.6 4.8 0.00 1.17 0.41 93 1005.5
20260507091538 8 338 3.2 8.0 0.00 1.17 0.41 92 1005.7
20260507091018 8 315 4.8 12.9 0.00 1.17 0.41 92 1006.0
20260507090538 8 315 4.8 16.1 0.00 1.17 0.41 93 1005.8
20260507090019 8 315 3.2 9.7 0.00 1.17 0.41 93 1005.8
20260507085519 8 315 4.8 12.9 0.00 1.17 0.41 93 1005.7
20260507085020 8 315 4.8 9.7 0.00 1.17 0.41 93 1006.2
20260507084518 8 315 6.4 12.9 0.00 1.17 0.41 93 1006.1
20260507084022 8 315 8.0 19.3 0.00 1.17 0.41 93 1005.9
20260507083518 8 315 8.0 17.7 0.00 1.17 0.41 94 1005.7
20260507083019 8 315 8.0 24.1 0.00 1.17 0.41 95 1005.4
20260507082518 8 315 9.7 20.9 0.00 1.17 0.41 95 1005.4
20260507082020 9 315 4.8 17.7 0.00 1.17 0.41 96 1005.8
20260507081517 9 338 4.8 16.1 0.00 1.17 0.41 97 1006.0
20260507081018 9 293 3.2 12.9 0.00 1.17 0.41 97 1005.9
20260507080519 9 293 3.2 9.7 0.00 1.17 0.41 97 1005.5
20260507080030 9 315 3.2 8.0 0.00 1.17 0.41 97 1005.3
20260507075520 9 315 4.8 11.3 0.00 1.17 0.41 97 1005.5
20260507075037 9 315 3.2 8.0 0.00 1.17 0.41 97 1005.1
20260507074517 9 293 3.2 6.4 0.00 1.17 0.41 97 1005.6
20260507074018 10 315 1.6 6.4 0.00 1.17 0.41 97 1005.4
20260507073517 10 315 1.6 6.4 0.00 1.17 0.41 97 1005.5
20260507073018 10 315 3.2 6.4 0.00 1.17 0.41 97 1005.3
20260507072539 10 293 1.6 4.8 0.00 1.17 0.41 97 1005.2
20260507072017 10 293 1.6 8.0 0.00 1.17 0.41 98 1005.4
20260507071519 10 315 1.6 3.2 0.00 1.17 0.41 98 1005.2
20260507071019 10 293 1.6 4.8 0.00 1.17 0.41 98 1005.1
20260507070517 10 293 1.6 3.2 0.00 1.17 0.41 98 1005.2
20260507070018 10 293 3.2 11.3 0.00 1.17 0.41 97 1005.2
20260507065518 10 293 3.2 8.0 0.00 1.17 0.41 98 1005.1
20260507065019 10 293 1.6 8.0 0.00 1.17 0.41 98 1004.7
20260507064519 10 0.0 3.2 0.03 1.17 0.41 98 1004.6
20260507064058 10 0.0 3.2 0.03 1.17 0.41 98 1004.8
20260507063518 10 315 1.6 6.4 0.03 1.17 0.41 98 1004.9
20260507063019 10 0.0 3.2 0.03 1.17 0.41 98 1004.6
20260507062518 10 0.0 0.0 0.03 1.17 0.41 98 1004.5
20260507062018 10 0.0 1.6 0.03 1.17 0.41 98 1004.4
20260507061537 10 293 1.6 8.0 0.03 1.17 0.41 98 1004.5
20260507061017 10 0.0 4.8 0.03 1.17 0.41 98 1004.6
20260507060540 10 315 3.2 8.0 0.03 1.17 0.41 98 1004.5
20260507060022 10 0.0 6.4 0.03 1.17 0.41 98 1004.6
20260507055517 10 0.0 1.6 0.03 1.17 0.41 98 1004.5
20260507055019 10 68 1.6 11.3 0.03 1.17 0.41 98 1004.6
20260507054518 11 338 4.8 16.1 0.03 1.14 0.38 98 1004.6
20260507054018 11 338 4.8 16.1 0.08 1.14 0.38 98 1004.4
20260507053519 11 315 3.2 12.9 0.10 1.14 0.38 98 1004.6
20260507053018 11 338 3.2 9.7 0.15 1.14 0.38 98 1004.4
20260507052517 11 45 1.6 6.4 0.20 1.14 0.38 98 1004.6
20260507052018 11 338 3.2 8.0 0.25 1.14 0.38 99 1004.5
20260507051518 11 315 1.6 8.0 0.30 1.14 0.38 99 1004.7
20260507051017 11 315 3.2 12.9 0.33 1.14 0.38 99 1004.5
20260507050517 11 315 3.2 9.7 0.36 1.14 0.38 98 1004.4
20260507050017 11 315 3.2 12.9 0.38 1.14 0.38 98 1004.2
20260507045518 11 338 6.4 19.3 0.38 1.14 0.38 99 1004.2
20260507045018 11 338 8.0 20.9 0.38 1.14 0.38 98 1004.2
20260507044518 11 338 1.6 11.3 0.36 1.12 0.36 98 1004.1
20260507044017 11 0.0 0.0 0.30 1.07 0.30 98 1004.3
20260507043519 11 0.0 0.0 0.28 1.04 0.28 98 1004.5
20260507043019 11 0.0 0.0 0.23 0.99 0.23 98 1004.5
20260507042517 11 0.0 0.0 0.18 0.94 0.18 98 1004.8
20260507042039 11 0.0 4.8 0.13 0.89 0.13 98 1004.5
20260507041517 11 293 1.6 6.4 0.08 0.84 0.08 98 1004.4
20260507041038 11 315 4.8 14.5 0.08 0.81 0.05 98 1004.3
20260507040521 11 225 6.4 17.7 0.05 0.79 0.03 98 1004.1
20260507040019 11 248 4.8 9.7 0.03 0.76 0.76 98 1003.6
20260507035603 11 225 4.8 11.3 0.03 0.76 0.76 98 1003.6
20260507035018 11 203 4.8 12.9 0.03 0.76 0.76 98 1003.7
20260507034538 11 203 4.8 9.7 0.03 0.76 0.76 98 1003.7
20260507034025 11 180 3.2 11.3 0.03 0.76 0.76 98 1003.9
20260507033521 11 225 4.8 12.9 0.03 0.76 0.76 98 1003.8
20260507033017 11 225 6.4 12.9 0.03 0.76 0.76 98 1003.8
20260507032518 11 225 4.8 11.3 0.03 0.76 0.76 98 1003.8
20260507032019 11 203 6.4 14.5 0.03 0.76 0.76 98 1003.8
20260507031518 11 225 8.0 19.3 0.03 0.76 0.76 98 1003.8
20260507031039 11 203 6.4 14.5 0.00 0.74 0.74 98 1003.9
20260507030520 11 225 4.8 14.5 0.00 0.74 0.74 98 1003.8
20260507030018 11 225 6.4 24.1 0.00 0.74 0.74 98 1003.8
20260507025545 10 203 3.2 11.3 0.00 0.74 0.74 98 1003.7
20260507025019 10 225 4.8 11.3 0.03 0.74 0.74 98 1003.9
20260507024518 10 203 8.0 14.5 0.03 0.74 0.74 98 1003.9
20260507024039 10 225 6.4 17.7 0.03 0.74 0.74 98 1004.1
20260507023520 10 225 12.9 25.7 0.03 0.74 0.74 98 1004.1
20260507023018 10 225 12.9 27.4 0.03 0.74 0.74 98 1004.1
20260507022517 10 225 8.0 16.1 0.05 0.74 0.74 98 1004.3
20260507022017 10 203 6.4 14.5 0.05 0.74 0.74 98 1004.3
20260507021518 10 203 6.4 12.9 0.05 0.74 0.74 98 1004.5
20260507021021 10 225 8.0 14.5 0.05 0.74 0.74 98 1004.5
20260507020517 10 225 8.0 16.1 0.05 0.74 0.74 98 1004.4
20260507020018 10 225 11.3 24.1 0.05 0.74 0.74 98 1004.5
20260507015517 10 203 8.0 16.1 0.05 0.74 0.74 98 1004.7
20260507015018 10 225 11.3 22.5 0.05 0.71 0.71 98 1004.6
20260507014518 10 225 11.3 22.5 0.05 0.71 0.71 97 1004.8
20260507014038 10 225 9.7 22.5 0.05 0.71 0.71 97 1004.8
20260507013518 11 225 12.9 25.7 0.08 0.71 0.71 97 1004.8
20260507013017 11 225 9.7 16.1 0.08 0.71 0.71 97 1004.9
20260507012518 11 225 11.3 24.1 0.05 0.69 0.69 97 1004.9
20260507012019 11 225 9.7 17.7 0.05 0.69 0.69 97 1004.9
20260507011519 11 225 11.3 20.9 0.05 0.69 0.69 97 1005.0
20260507011039 11 225 9.7 19.3 0.05 0.69 0.69 97 1005.0
20260507010523 11 225 8.0 14.5 0.05 0.69 0.69 97 1005.0
20260507010017 11 203 4.8 12.9 0.05 0.69 0.69 97 1005.0
20260507005519 11 225 9.7 20.9 0.05 0.69 0.69 97 1005.0
20260507005037 11 225 8.0 16.1 0.03 0.66 0.66 97 1005.1
20260507004521 11 203 8.0 16.1 0.03 0.66 0.66 97 1005.2
20260507004019 11 225 6.4 16.1 0.03 0.66 0.66 97 1005.1
20260507003518 11 225 3.2 11.3 0.00 0.64 0.64 97 1005.2
20260507003017 11 203 3.2 11.3 0.00 0.64 0.64 97 1005.4
20260507002523 11 248 3.2 12.9 0.00 0.64 0.64 97 1005.2
20260507002024 11 225 6.4 17.7 0.00 0.64 0.64 97 1005.4
20260507001518 11 225 8.0 16.1 0.00 0.64 0.64 97 1005.4
20260507001039 11 225 9.7 22.5 0.00 0.64 0.64 97 1005.2
20260507000518 11 225 9.7 25.7 0.00 0.64 0.64 97 1005.0
20260507000019 11 225 9.7 20.9 0.00 0.64 0.64 97 1005.1
20260506235518 11 203 6.4 17.7 0.00 0.64 0.64 97 1005.0
20260506235017 11 225 11.3 22.5 0.00 0.64 0.64 97 1005.0
20260506234519 11 180 8.0 30.6 0.00 0.64 0.64 97 1005.0
20260506234020 11 180 11.3 27.4 0.00 0.64 0.64 97 1005.0
20260506233521 11 225 4.8 14.5 0.00 0.64 0.64 97 1005.1
20260506233018 11 225 8.0 20.9 0.00 0.64 0.64 97 1005.4
20260506232518 11 203 9.7 30.6 0.00 0.64 0.64 97 1005.1
20260506232038 11 225 9.7 19.3 0.03 0.64 0.64 97 1005.2
20260506231558 12 203 6.4 17.7 0.03 0.64 0.64 97 1005.1
20260506231038 12 203 4.8 14.5 0.03 0.64 0.64 97 1005.2
20260506230521 12 203 9.7 22.5 0.05 0.64 0.64 97 1005.3
20260506230019 12 203 8.0 25.7 0.05 0.64 0.64 97 1005.3
20260506225517 12 203 6.4 19.3 0.05 0.64 0.64 97 1005.4
20260506225019 12 180 4.8 16.1 0.08 0.64 0.64 97 1005.5
20260506224517 12 225 6.4 16.1 0.08 0.64 0.64 97 1005.4
20260506224022 12 203 6.4 19.3 0.10 0.64 0.64 97 1005.5
20260506223517 12 225 11.3 29.0 0.10 0.64 0.64 97 1005.5
20260506223017 12 225 11.3 29.0 0.13 0.64 0.64 97 1005.6
20260506222518 12 203 11.3 29.0 0.13 0.64 0.64 97 1005.7
20260506222039 12 225 11.3 24.1 0.13 0.61 0.61 97 1005.6
20260506221517 12 203 11.3 25.7 0.15 0.61 0.61 97 1005.7
20260506221045 12 225 8.0 24.1 0.18 0.61 0.61 97 1005.8
20260506220542 12 225 12.9 29.0 0.18 0.58 0.58 97 1005.7
20260506220019 12 225 11.3 19.3 0.18 0.58 0.58 97 1005.8
20260506215517 12 225 11.3 24.1 0.20 0.58 0.58 97 1006.0
20260506215020 12 225 9.7 20.9 0.18 0.56 0.56 97 1005.9
20260506214517 11 203 9.7 19.3 0.20 0.56 0.56 97 1006.0
20260506214020 11 225 11.3 24.1 0.18 0.53 0.53 97 1006.1
20260506213541 11 203 9.7 22.5 0.18 0.53 0.53 97 1006.1
20260506213017 11 225 11.3 22.5 0.15 0.51 0.51 96 1006.0
20260506212518 11 225 9.7 22.5 0.18 0.51 0.51 96 1006.2
20260506212017 11 225 8.0 19.3 0.18 0.48 0.48 96 1006.3
20260506211605 11 225 9.7 20.9 0.15 0.46 0.46 96 1006.3
20260506211019 11 225 9.7 24.1 0.13 0.43 0.43 96 1006.5
20260506210518 11 203 9.7 20.9 0.13 0.41 0.41 96 1006.4
20260506210017 11 225 6.4 14.5 0.15 0.41 0.41 96 1006.3
20260506205527 11 225 6.4 12.9 0.13 0.38 0.38 96 1006.1
20260506205018 11 203 9.7 22.5 0.18 0.38 0.38 96 1006.2
20260506204523 11 225 9.7 27.4 0.18 0.36 0.36 96 1006.2
20260506204039 11 225 9.7 19.3 0.20 0.36 0.36 96 1006.4
20260506203539 11 203 8.0 22.5 0.23 0.36 0.36 96 1006.4
20260506203017 11 203 8.0 29.0 0.25 0.36 0.36 96 1006.4
20260506202518 11 203 9.7 24.1 0.25 0.33 0.33 96 1006.4
20260506202018 11 203 8.0 20.9 0.25 0.30 0.30 95 1006.8
20260506201540 11 180 4.8 17.7 0.30 0.30 0.30 95 1006.6
20260506201017 11 203 9.7 24.1 0.30 0.30 0.30 95 1006.7
20260506200539 11 203 8.0 19.3 0.28 0.28 0.28 95 1007.0
20260506200018 11 203 11.3 22.5 0.25 0.25 0.25 95 1007.1
20260506195517 11 225 11.3 29.0 0.25 0.25 0.25 95 1007.0
20260506195029 11 203 12.9 29.0 0.20 0.20 0.20 95 1007.1
20260506194518 11 203 12.9 27.4 0.18 0.18 0.18 95 1007.0
20260506194019 11 203 12.9 30.6 0.15 0.15 0.15 95 1006.9
20260506193558 11 225 14.5 24.1 0.13 0.13 0.13 94 1007.2
20260506193019 11 225 14.5 27.4 0.10 0.10 0.10 94 1007.1
20260506192518 11 248 6.4 17.7 0.08 0.08 0.08 94 1007.3
20260506192058 12 203 9.7 19.3 0.05 0.05 0.05 93 1007.3
20260506191522 12 225 12.9 22.5 0.00 0.00 0.00 92 1007.2
20260506191018 12 225 8.0 16.1 0.00 0.00 0.00 92 1006.9
20260506190538 12 225 11.3 19.3 0.00 0.00 0.00 91 1007.0
20260506190037 12 225 11.3 19.3 0.00 0.00 0.00 91 1006.9
20260506185518 12 225 11.3 25.7 0.00 0.00 0.00 90 1007.0
20260506185017 12 248 9.7 16.1 0.00 0.00 0.00 88 1006.8
20260506184517 13 225 11.3 25.7 0.00 0.00 0.00 89 1006.7
20260506184018 13 225 11.3 22.5 0.00 0.00 0.00 88 1006.8
20260506183519 13 203 11.3 22.5 0.00 0.00 0.00 88 1006.9
20260506183021 13 203 9.7 17.7 0.00 0.00 0.00 88 1006.8
20260506182517 13 225 11.3 22.5 0.00 0.00 0.00 88 1006.9
20260506182019 13 225 11.3 20.9 0.00 0.00 0.00 87 1007.2
20260506181521 13 225 8.0 16.1 0.00 0.00 0.00 87 1007.3
20260506181023 13 203 9.7 20.9 0.00 0.00 0.00 87 1007.1
20260506180518 13 225 8.0 17.7 0.00 0.00 0.00 87 1007.1
20260506180023 13 225 9.7 19.3 0.00 0.00 0.00 87 1007.3
20260506175517 13 203 4.8 14.5 0.00 0.00 0.00 87 1007.3
20260506175017 13 225 4.8 11.3 0.00 0.00 0.00 87 1007.3
20260506174518 13 180 4.8 9.7 0.00 0.00 0.00 88 1007.4
20260506174020 13 203 4.8 12.9 0.00 0.00 0.00 88 1007.3
20260506173516 13 225 8.0 17.7 0.00 0.00 0.00 88 1007.3
20260506173018 13 225 6.4 11.3 0.00 0.00 0.00 88 1007.4
20260506172519 13 225 8.0 14.5 0.00 0.00 0.00 88 1007.5
20260506172016 13 203 6.4 12.9 0.00 0.00 0.00 88 1007.6
20260506171518 13 225 8.0 16.1 0.00 0.00 0.00 87 1007.7
20260506171017 13 225 4.8 11.3 0.00 0.00 0.00 88 1007.9
20260506170519 13 203 6.4 12.9 0.00 0.00 0.00 88 1007.9
20260506170036 13 203 4.8 11.3 0.00 0.00 0.00 88 1007.9
20260506165517 13 225 6.4 12.9 0.00 0.00 0.00 88 1008.0
20260506165037 13 225 9.7 14.5 0.00 0.00 0.00 88 1008.2
20260506164523 13 225 8.0 20.9 0.00 0.00 0.00 88 1008.3
20260506164017 13 203 9.7 20.9 0.00 0.00 0.00 88 1008.3
20260506163517 13 203 11.3 24.1 0.00 0.00 0.00 88 1008.2
20260506163019 13 203 11.3 22.5 0.00 0.00 0.00 87 1008.6
20260506162516 13 225 12.9 22.5 0.00 0.00 0.00 87 1008.5
20260506162017 13 225 9.7 20.9 0.00 0.00 0.00 87 1008.7
20260506161516 13 225 8.0 19.3 0.00 0.00 0.00 88 1008.7
20260506161016 13 225 8.0 16.1 0.00 0.00 0.00 88 1008.9
20260506160519 13 225 8.0 16.1 0.00 0.00 0.00 89 1008.8
20260506160017 13 203 9.7 20.9 0.00 0.00 0.00 88 1009.0
20260506155517 13 225 8.0 12.9 0.00 0.00 0.00 90 1009.0
20260506155018 13 225 6.4 12.9 0.00 0.00 0.00 89 1008.9
20260506154516 12 203 11.3 22.5 0.00 0.00 0.00 89 1009.1
20260506154018 12 225 9.7 27.4 0.00 0.00 0.00 89 1009.2
20260506153518 13 225 11.3 29.0 0.00 0.00 0.00 88 1009.3
20260506153020 13 225 11.3 24.1 0.00 0.00 0.00 88 1009.4
20260506152517 13 225 9.7 16.1 0.00 0.00 0.00 89 1009.2
20260506152037 13 225 12.9 27.4 0.00 0.00 0.00 88 1009.1
20260506151517 13 225 12.9 20.9 0.00 0.00 0.00 87 1009.3
20260506151021 13 225 11.3 19.3 0.00 0.00 0.00 87 1009.3
20260506150517 13 225 9.7 17.7 0.00 0.00 0.00 87 1009.2
20260506150017 13 225 9.7 19.3 0.00 0.00 0.00 88 1008.9
20260506145516 13 225 9.7 20.9 0.00 0.00 0.00 88 1008.8
20260506145021 13 203 9.7 19.3 0.00 0.00 0.00 88 1008.7
20260506144517 13 225 12.9 20.9 0.00 0.00 0.00 89 1008.6
20260506144018 13 225 9.7 20.9 0.00 0.00 0.00 89 1008.6
20260506143516 13 225 9.7 17.7 0.00 0.00 0.00 90 1008.7
20260506143036 13 203 6.4 17.7 0.00 0.00 0.00 89 1008.8
20260506142523 13 225 12.9 29.0 0.00 0.00 0.00 89 1009.0
20260506142017 13 225 11.3 25.7 0.00 0.00 0.00 89 1009.3
20260506141516 13 180 4.8 11.3 0.00 0.00 0.00 90 1009.3
20260506141016 13 203 6.4 19.3 0.00 0.00 0.00 91 1009.5
20260506140518 12 225 8.0 16.1 0.00 0.00 0.00 90 1009.4
20260506140016 12 203 9.7 19.3 0.00 0.00 0.00 90 1009.3
20260506135516 12 225 11.3 25.7 0.00 0.00 0.00 90 1009.4
20260506135018 12 203 11.3 24.1 0.00 0.00 0.00 90 1009.4
20260506134518 12 225 9.7 20.9 0.00 0.00 0.00 90 1009.5
20260506134019 12 225 9.7 17.7 0.00 0.00 0.00 90 1009.4
20260506133516 12 225 11.3 22.5 0.00 0.00 0.00 90 1009.4
20260506133024 12 225 12.9 22.5 0.00 0.00 0.00 89 1009.2
20260506132529 13 203 9.7 19.3 0.00 0.00 0.00 89 1009.1
20260506132023 13 225 9.7 19.3 0.00 0.00 0.00 89 1009.3
20260506131521 13 225 6.4 16.1 0.00 0.00 0.00 89 1009.2
20260506131019 13 203 9.7 20.9 0.00 0.00 0.00 89 1009.3
20260506130522 13 203 11.3 24.1 0.00 0.00 0.00 89 1009.2
20260506130018 13 225 12.9 20.9 0.00 0.00 0.00 89 1009.1
20260506125539 13 203 11.3 20.9 0.00 0.00 0.00 89 1009.1
20260506125021 13 225 12.9 29.0 0.00 0.00 0.00 89 1009.0
20260506124519 13 225 14.5 29.0 0.00 0.00 0.00 89 1009.2
20260506124019 13 225 9.7 20.9 0.00 0.00 0.00 90 1009.2
20260506123538 12 225 11.3 20.9 0.00 0.00 0.00 89 1009.2
20260506123018 12 203 9.7 20.9 0.00 0.00 0.00 90 1009.2
20260506122518 12 203 8.0 16.1 0.00 0.00 0.00 90 1009.3
20260506122018 12 203 6.4 14.5 0.00 0.00 0.00 90 1009.3
20260506121520 12 203 4.8 11.3 0.00 0.00 0.00 90 1009.4
20260506121019 12 225 8.0 14.5 0.00 0.00 0.00 90 1009.4
20260506120539 12 225 6.4 14.5 0.00 0.00 0.00 90 1009.4
20260506120020 12 225 6.4 20.9 0.00 0.00 0.00 90 1009.4